Kiana, AK

4:41 PM AKST on November 12, 2019 (GMT -0900)
Baker Memorial

Weather History for PAIK - October, 2019

Change the Weather History Date:

Monday, October 21, 2019

  Actual Average (WUND) Record (WUND)
Temperature  
Mean Temperature 24 °F -  
Max Temperature 30 °F - - (-1)
Min Temperature 15 °F - - (-1)
Degree Days  
Heating Degree Days 41    
Moisture  
Dew Point 20 °F    
Average Humidity 76    
Maximum Humidity 91    
Minimum Humidity 67    
Precipitation  
Precipitation 0.00 in - - ()
Sea Level Pressure  
Sea Level Pressure 29.78 in    
Wind  
Wind Speed 3 mph ()    
Max Wind Speed 7 mph    
Max Gust Speed -    
Visibility 9.9 miles    
Events      
Averages and records for this station are not official NWS values.
T = Trace of Precipitation, MM = Missing Value Source: Averaged Metar Reports

Daily Weather History Graph

Daily Weather History Graph

Search for Another Location

Airport or City:

Astronomy

Oct. 21, 2019 Rise Set
Actual Time 10:03 AM AKDT 6:48 PM AKDT
Civil Twilight 9:06 AM AKDT 7:44 PM AKDT
Nautical Twilight 8:04 AM AKDT 8:46 PM AKDT
Astronomical Twilight 7:02 AM AKDT 9:48 PM AKDT
Moon 11:24 PM AKDT (10/21) 7:28 PM AKDT (10/21)
Length of Visible Light 10h 37m
Length of Day
8h 44m
Waning Gibbous, 47% of the Moon is Illuminated
Oct 21
Waning Gibbous
Oct 27
New
Nov 4
First Quarter
Nov 12
Full
Nov 19
Last Quarter

Hourly Weather History & Observations

Time (AKDT) Temp. Windchill Dew Point Humidity Pressure Visibility Wind Dir Wind Speed Gust Speed Precip Events Conditions
12:56 AM 30.0 °F 24.1 °F 21.9 °F 72% 29.77 in 10.0 mi ENE 5.8 mph - N/A   Overcast
1:56 AM 28.9 °F 25.2 °F 21.9 °F 75% 29.77 in 10.0 mi East 3.5 mph - N/A   Overcast
2:56 AM 28.9 °F 21.9 °F 21.9 °F 75% 29.77 in 10.0 mi East 6.9 mph - N/A   Overcast
3:56 AM 28.9 °F 25.2 °F 21.0 °F 72% 29.76 in 10.0 mi NE 3.5 mph - N/A   Overcast
5:56 AM 28.9 °F 22.8 °F 21.0 °F 72% 29.76 in 10.0 mi ENE 5.8 mph - N/A   Overcast
6:56 AM 28.9 °F 23.9 °F 21.0 °F 72% 29.77 in 10.0 mi NE 4.6 mph - N/A   Overcast
7:56 AM 28.9 °F 22.8 °F 21.0 °F 72% 29.77 in 10.0 mi NE 5.8 mph - N/A   Overcast
8:56 AM 28.0 °F 22.8 °F 19.9 °F 72% 29.76 in 10.0 mi NNE 4.6 mph - N/A   Overcast
9:56 AM 28.0 °F - 21.0 °F 75% 29.76 in 10.0 mi Calm Calm - N/A   Overcast
10:56 AM 28.0 °F 24.2 °F 21.0 °F 75% 29.76 in 10.0 mi NE 3.5 mph - N/A   Overcast
11:56 AM 28.0 °F - 21.9 °F 78% 29.77 in 9.0 mi Calm Calm - N/A   Overcast
12:56 PM 28.9 °F - 21.9 °F 75% 29.78 in 10.0 mi Calm Calm - N/A   Overcast
1:56 PM 30.0 °F - 21.9 °F 72% 29.78 in 10.0 mi Calm Calm - N/A   Overcast
2:56 PM 30.0 °F - 21.9 °F 72% 29.78 in 10.0 mi Calm Calm - N/A   Overcast
3:56 PM 30.0 °F - 21.9 °F 72% 29.77 in 9.0 mi Calm Calm - N/A   Overcast
4:56 PM 30.9 °F - 21.0 °F 67% 29.77 in 10.0 mi Calm Calm - N/A   Overcast
5:56 PM 28.9 °F 25.2 °F 19.9 °F 69% 29.77 in 10.0 mi NNW 3.5 mph - N/A   Overcast
6:56 PM 27.0 °F 20.5 °F 19.0 °F 72% 29.77 in 10.0 mi North 5.8 mph - N/A   Clear
7:56 PM 23.0 °F 17.0 °F 18.0 °F 81% 29.78 in 10.0 mi NE 4.6 mph - N/A   Clear
8:56 PM 21.9 °F 15.7 °F 17.1 °F 82% 29.79 in 10.0 mi North 4.6 mph - N/A   Clear
9:56 PM 18.0 °F 12.7 °F 15.1 °F 88% 29.80 in 10.0 mi NNW 3.5 mph - N/A   Clear
10:56 PM 18.0 °F - 15.1 °F 88% 29.81 in 10.0 mi Calm Calm - N/A   Clear
11:56 PM 15.1 °F - 12.9 °F 91% 29.82 in 10.0 mi Calm Calm - N/A   Clear